Location: Peyton Hall Observatory
(40.3466°N, 74.6516°W)
Time: 18:18:57
(UTC-04:00)

ISS - All Passes

Search period start: 20 April 2014 00:00
Search period end: 30 April 2014 00:00
Orbit: 414 x 419 km, 51.6° (Epoch: 20 April)

Date Brightness Start Highest point End Pass type
(mag) Time Alt. Az. Time Alt. Az. Time Alt. Az.
20 Apr - 15:00:10 10° SW 15:03:25 51° SE 15:06:41 10° ENE daylight
20 Apr - 16:37:31 10° W 16:40:20 24° NNW 16:43:09 10° NNE daylight
20 Apr - 18:16:31 10° NNW 18:17:59 12° N 18:19:27 10° NNE daylight
20 Apr - 19:53:30 10° NNW 19:55:47 17° NNE 19:58:05 10° ENE daylight
20 Apr - 21:29:40 10° NW 21:33:01 69° NE 21:36:21 10° ESE visible
20 Apr - 23:07:45 10° W 23:09:21 13° SW 23:10:57 10° SSW visible
21 Apr - 14:12:05 10° SSW 14:15:00 28° SE 14:17:56 10° ENE daylight
21 Apr - 15:48:34 10° W 15:51:40 34° NNW 15:54:47 10° NE daylight
21 Apr - 17:27:26 10° NW 17:29:10 13° N 17:30:54 10° NNE daylight
21 Apr - 19:05:07 10° NNW 19:07:00 14° NNE 19:08:54 10° NE daylight
21 Apr - 20:41:13 10° NW 20:44:26 41° NNE 20:47:38 10° ESE visible
21 Apr - 22:18:18 10° W 22:21:00 22° SW 22:23:40 10° S visible
22 Apr - 13:24:25 10° S 13:26:34 16° SE 13:28:44 10° E daylight
22 Apr - 14:59:43 10° WSW 15:03:00 55° NNW 15:06:18 10° NE daylight
22 Apr - 16:38:12 10° NW 16:40:18 16° NNW 16:42:25 10° NNE daylight
22 Apr - 18:16:34 10° NNW 18:18:07 13° N 18:19:40 10° NE daylight
22 Apr - 19:52:45 10° NW 19:55:42 28° NNE 19:58:39 10° E daylight
22 Apr - 21:29:20 10° WNW 21:32:30 40° SW 21:35:39 10° SSE visible
23 Apr - 14:10:59 10° SW 14:14:19 86° SE 14:17:40 10° NE daylight
23 Apr - 15:48:54 10° WNW 15:51:24 19° NNW 15:53:55 10° NNE daylight
23 Apr - 17:27:46 10° NNW 17:29:09 12° N 17:30:32 10° NNE daylight
23 Apr - 19:04:15 10° NNW 19:06:52 21° NNE 19:09:28 10° ENE daylight
23 Apr - 20:40:33 10° WNW 20:43:53 74° SW 20:47:13 10° SE visible
24 Apr - 13:22:26 10° SSW 13:25:38 46° SE 13:28:52 10° ENE daylight
24 Apr - 14:59:38 10° W 15:02:29 25° NNW 15:05:21 10° NE daylight
24 Apr - 16:38:38 10° NNW 16:40:06 12° N 16:41:35 10° NNE daylight
24 Apr - 18:15:41 10° NNW 18:17:54 16° NNE 18:20:06 10° ENE daylight
24 Apr - 19:51:49 10° NW 19:55:08 63° NE 19:58:27 10° ESE daylight
24 Apr - 21:29:38 10° W 21:31:30 14° SW 21:33:21 10° SSW visible
25 Apr - 12:34:09 10° SSW 12:36:57 26° SE 12:39:47 10° ENE daylight
25 Apr - 14:10:26 10° W 14:13:33 37° NNW 14:16:42 10° NE daylight
25 Apr - 15:49:14 10° NW 15:51:00 14° N 15:52:47 10° NNE daylight
25 Apr - 17:27:01 10° NNW 17:28:49 14° N 17:30:38 10° NE daylight
25 Apr - 19:03:06 10° NW 19:06:15 38° NNE 19:09:25 10° E daylight
25 Apr - 20:40:03 10° WNW 20:42:51 25° SW 20:45:38 10° S visible
26 Apr - 11:46:21 10° SSE 11:48:16 15° SE 11:50:11 10° E daylight
26 Apr - 13:21:20 10° WSW 13:24:37 61° NW 13:27:56 10° NE daylight
26 Apr - 14:59:42 10° NW 15:01:52 16° NNW 15:04:02 10° NNE daylight
26 Apr - 16:38:10 10° NNW 16:39:39 12° N 16:41:08 10° NNE daylight
26 Apr - 18:14:22 10° NW 18:17:15 26° NNE 18:20:07 10° E daylight
26 Apr - 19:50:52 10° WNW 19:54:04 44° SW 19:57:16 10° SSE daylight
27 Apr - 12:32:22 10° SW 12:35:41 76° SE 12:39:01 10° NE daylight
27 Apr - 14:10:08 10° WNW 14:12:42 20° NNW 14:15:16 10° NNE daylight
27 Apr - 15:49:02 10° NNW 15:50:24 12° N 15:51:46 10° NNE daylight
27 Apr - 17:25:36 10° NNW 17:28:07 19° NNE 17:30:38 10° ENE daylight
27 Apr - 19:01:49 10° NW 19:05:10 83° SW 19:08:30 10° SE daylight
28 Apr - 11:43:36 10° SSW 11:46:44 40° SE 11:49:53 10° ENE daylight
28 Apr - 13:20:36 10° W 13:23:31 27° NNW 13:26:26 10° NE daylight
28 Apr - 14:59:34 10° NNW 15:01:04 12° N 15:02:35 10° NNE daylight
28 Apr - 16:36:45 10° NNW 16:38:51 16° NNE 16:40:58 10° NE daylight
28 Apr - 18:12:50 10° NW 18:16:07 56° NNE 18:19:24 10° ESE daylight
28 Apr - 19:50:23 10° W 19:52:31 16° SW 19:54:37 10° S daylight
29 Apr - 10:55:07 10° S 10:57:47 23° SE 11:00:27 10° E daylight
29 Apr - 12:31:09 10° WSW 12:34:19 41° NNW 12:37:30 10° NE daylight
29 Apr - 14:09:51 10° NW 14:11:42 14° NNW 14:13:33 10° NNE daylight
29 Apr - 15:47:47 10° NNW 15:49:30 13° N 15:51:12 10° NE daylight
29 Apr - 17:23:51 10° NW 17:26:57 35° NNE 17:30:02 10° E daylight
29 Apr - 19:00:40 10° WNW 19:03:34 28° SW 19:06:28 10° SSE daylight
